Beaumont, TX

12:05 PM CDT on April 27, 2017 (GMT -0500)
Southeast Texas Regional

Weather History for KBPT - November, 2013

Change the Weather History Date:

Sunday, November 17, 2013

  Actual Average Record
Temperature  
Mean Temperature 79 °F 61 °F  
Max Temperature 84 °F 71 °F 85 °F (1964)
Min Temperature 73 °F 51 °F 32 °F (1959)
Degree Days  
Heating Degree Days 0 5  
Month to date heating degree days 70 67  
Since 1 July heating degree days 79 101  
Cooling Degree Days 14 2  
Month to date cooling degree days 37 46  
Year to date cooling degree days 2982 2837  
Growing Degree Days 28 (Base 50)    
Moisture  
Dew Point 73 °F    
Average Humidity 87    
Maximum Humidity 100    
Minimum Humidity 74    
Precipitation  
Precipitation 0.04 in 0.13 in 2.51 in (1902)
Month to date precipitation 0.39 2.54  
Year to date precipitation 51.52 53.32  
Snow  
Snow 0.00 in 0.00 in 0.00 in ()
Month to date snowfall 0.0 0.0  
Since 1 July snowfall 0.0 0.0  
Since 1 September snowfall 0.0 0.0  
Snow Depth 0.00 in    
Sea Level Pressure  
Sea Level Pressure 29.89 in    
Wind  
Wind Speed 9 mph (South)    
Max Wind Speed 20 mph    
Max Gust Speed 25 mph    
Visibility 6 miles    
Events Fog , Rain    
T = Trace of Precipitation, MM = Missing Value Source: NWS Daily Summary

Daily Weather History Graph

Daily Weather History Graph

Search for Another Location

Airport or City:

Trip Planner

Search our weather history database for the weather conditions in past years. The results will help you decide how hot, cold, wet, or windy it might be!

Date:

Astronomy

Nov. 17, 2013 Rise Set
Actual Time 6:42 AM CST 5:19 PM CST
Civil Twilight 6:17 AM CST 5:44 PM CST
Nautical Twilight 5:48 AM CST 6:13 PM CST
Astronomical Twilight 5:20 AM CST 6:41 PM CST
Moon 5:36 PM CST (11/17) 6:38 AM CST (11/17)
Length of Visible Light 11h 26m
Length of Day
10h 36m
Full, 100% of the Moon is Illuminated
Nov 17
Full
Nov 25
Last Quarter
Dec 2
New
Dec 9
First Quarter
Dec 17
Full

Hourly Weather History & Observations

Time (CST) Temp. Heat Index Dew Point Humidity Pressure Visibility Wind Dir Wind Speed Gust Speed Precip Events Conditions
12:07 AM 73.4 °F - 71.6 °F 94% 29.87 in 2.5 mi SSE 8.1 mph - 0.03 in Rain Rain
12:25 AM 73.4 °F - 71.6 °F 94% 29.87 in 7.0 mi SSE 12.7 mph - 0.05 in   Overcast
12:53 AM 73.9 °F - 72.0 °F 93% 29.86 in 4.0 mi SSE 15.0 mph - 0.05 in Rain Light Rain
1:19 AM 73.4 °F - 71.6 °F 94% 29.85 in 6.0 mi SSE 15.0 mph 23.0 mph 0.00 in   Overcast
1:51 AM 73.4 °F - 71.6 °F 94% 29.83 in 8.0 mi SSE 16.1 mph 23.0 mph 0.00 in   Overcast
1:53 AM 73.9 °F - 72.0 °F 93% 29.84 in 8.0 mi SSE 16.1 mph 23.0 mph 0.00 in   Overcast
2:03 AM 73.4 °F - 71.6 °F 94% 29.84 in 9.0 mi SSE 16.1 mph - N/A   Overcast
2:12 AM 73.4 °F - 71.6 °F 94% 29.83 in 10.0 mi SSE 13.8 mph - N/A   Overcast
2:19 AM 73.4 °F - 71.6 °F 94% 29.84 in 9.0 mi SSE 12.7 mph 18.4 mph N/A   Overcast
2:53 AM 73.9 °F - 72.0 °F 93% 29.84 in 10.0 mi SSE 12.7 mph - 0.00 in Rain Light Rain
3:53 AM 73.9 °F - 72.0 °F 93% 29.85 in 8.0 mi South 10.4 mph 19.6 mph 0.00 in Rain Light Rain
4:53 AM 73.0 °F - 72.0 °F 96% 29.85 in 7.0 mi South 8.1 mph - N/A   Overcast
5:28 AM 73.4 °F - 71.6 °F 94% 29.86 in 7.0 mi South 9.2 mph - N/A   Overcast
5:53 AM 73.0 °F - 72.0 °F 96% 29.86 in 7.0 mi South 6.9 mph - N/A   Overcast
6:53 AM 73.9 °F - 72.0 °F 93% 29.86 in 6.0 mi South 10.4 mph - 0.00 in   Mostly Cloudy
7:14 AM 73.4 °F - 71.6 °F 94% 29.87 in 6.0 mi South 9.2 mph - N/A   Scattered Clouds
7:53 AM 73.9 °F - 72.0 °F 93% 29.88 in 7.0 mi South 9.2 mph - 0.00 in   Clear
8:00 AM 73.4 °F - 71.6 °F 94% 29.89 in 7.0 mi South 9.2 mph - N/A   Mostly Cloudy
8:53 AM 75.0 °F - 73.0 °F 94% 29.91 in 6.0 mi South 6.9 mph - 0.00 in   Mostly Cloudy
9:53 AM 77.0 °F - 73.9 °F 90% 29.92 in 6.0 mi SSW 8.1 mph - N/A   Mostly Cloudy
10:53 AM 81.0 °F 86.2 °F 73.9 °F 79% 29.91 in 10.0 mi South 12.7 mph - N/A   Scattered Clouds
11:53 AM 82.0 °F 87.9 °F 73.9 °F 76% 29.89 in 10.0 mi SSW 10.4 mph - N/A   Scattered Clouds
12:00 PM 82.4 °F 88.2 °F 73.4 °F 74% 29.88 in 10.0 mi SSW 10.4 mph - N/A   Mostly Cloudy
12:53 PM 82.9 °F 88.8 °F 73.0 °F 72% 29.86 in 10.0 mi SW 11.5 mph 18.4 mph N/A   Mostly Cloudy
1:53 PM 82.9 °F 88.8 °F 73.0 °F 72% 29.84 in 10.0 mi SSW 12.7 mph - N/A   Scattered Clouds
2:53 PM 81.0 °F 86.2 °F 73.9 °F 79% 29.83 in 10.0 mi SSW 12.7 mph 20.7 mph N/A   Mostly Cloudy
3:17 PM 80.6 °F 85.4 °F 73.4 °F 79% 29.84 in 10.0 mi SSW 10.4 mph - N/A   Mostly Cloudy
3:53 PM 80.1 °F 84.5 °F 73.9 °F 81% 29.86 in 10.0 mi SSW 8.1 mph - N/A   Mostly Cloudy
4:53 PM 78.1 °F - 73.9 °F 87% 29.86 in 10.0 mi South 6.9 mph - N/A   Partly Cloudy
5:44 PM 75.2 °F - 73.4 °F 94% 29.88 in 10.0 mi South 3.5 mph - N/A   Partly Cloudy
5:53 PM 75.0 °F - 73.0 °F 94% 29.89 in 10.0 mi SSE 3.5 mph 27.6 mph N/A   Clear
6:27 PM 73.4 °F - 71.6 °F 94% 29.90 in 9.0 mi South 4.6 mph - N/A   Scattered Clouds
6:36 PM 73.4 °F - 73.4 °F 100% 29.90 in 5.0 mi South 6.9 mph - N/A   Mostly Cloudy
6:46 PM 73.4 °F - 73.4 °F 100% 29.91 in 5.0 mi South 6.9 mph - N/A   Overcast
6:53 PM 73.9 °F - 73.0 °F 97% 29.91 in 0.5 mi South 6.9 mph - N/A Fog Fog
7:12 PM 73.4 °F - 73.4 °F 100% 29.91 in 0.5 mi South 8.1 mph - N/A Fog Fog
7:30 PM 73.4 °F - 73.4 °F 100% 29.92 in 0.5 mi South 6.9 mph - N/A Fog Fog
7:53 PM 73.9 °F - 73.0 °F 97% 29.92 in 0.5 mi South 6.9 mph - N/A Fog Fog
8:24 PM 73.4 °F - 73.4 °F 100% 29.93 in 0.5 mi South 6.9 mph - N/A Fog Fog
8:53 PM 73.9 °F - 73.0 °F 97% 29.93 in 0.5 mi South 6.9 mph - N/A Fog Fog
9:26 PM 73.4 °F - 73.4 °F 100% 29.94 in 0.5 mi South 5.8 mph - N/A Fog Fog
9:41 PM 73.4 °F - 73.4 °F 100% 29.94 in 0.5 mi South 9.2 mph - N/A Fog Fog
9:53 PM 73.9 °F - 73.0 °F 97% 29.94 in 0.5 mi South 8.1 mph - N/A Fog Fog
10:02 PM 73.4 °F - 73.4 °F 100% 29.93 in 0.2 mi South 8.1 mph - N/A Fog Fog
10:53 PM 73.9 °F - 73.0 °F 97% 29.94 in 0.2 mi South 5.8 mph - N/A Fog Fog
11:02 PM 73.4 °F - 73.4 °F 100% 29.94 in 0.5 mi South 4.6 mph - N/A Fog Fog
11:31 PM 73.4 °F - 73.4 °F 100% 29.94 in 0.2 mi South 4.6 mph - N/A Fog Fog
11:53 PM 73.0 °F - 73.0 °F 100% 29.94 in 0.2 mi Calm Calm - N/A Fog Fog